Home > Time Zones > World Clock > Weather > Iran > Tehran > Past weeks

Flag for Iran Weather past 2 weeks in Tehran, Iran

Now
86 °F

Clear.


Feels Like: 83 °F
Forecast: 71 / 98 °F
Wind: No wind

Location: Tehran-Mehrabad

Current Time: Aug 1, 2014 at 1:32:15 AM

Latest Report: Aug 1, 2014 at 1:00 AM


Visibility: 10 mi

Pressure: 29.89 "Hg

Humidity: 22%

Dew point: 43 °F

Location of TehranLocation

Historic Weather in Tehran — Graph

°F

Tehran temperature yesterday

Maximum temperature yesterday: 93 °F (at 4:00 PM)
Minimum temperature yesterday: 79 °F (at 5:30 AM)
Average temperature yesterday: 87 °F

Past Weeks' High & Low Weather Summary

 TemperatureHumidityPressure
High108 °F (Jul 27, 3:30 PM)44% (Jul 21, 6:00 AM)32.90 "Hg (Jul 21, 6:00 AM)
Low68 °F (Jul 30, 6:30 AM)5% (Jul 27, 2:00 PM)29.62 "Hg (Jul 20, 6:30 PM)
Average90 °F19%29.79 "Hg
* Reported Jul 17 12:30 AM — Aug 1 12:30 AM, Tehran, Weather by CustomWeather, © 2014

Note: Actual official high and low records may vary slightly from our data, if they occured in-between our weather recording intervals... More about our weather records

Advertising

Tehran weather history for previous 24 hours

 ConditionsComfort  
Time TempWeatherWind HumidityBarometerVisibility
12:30 AM
Aug 1
86 °FClear.No wind22%29.89 "Hg10 mi
12:00 AM88 °FClear.5 mph18%29.86 "Hg10 mi
11:30 PM
Jul 31
88 °FClear.5 mph18%29.86 "Hg10 mi
11:00 PM90 °FClear.7 mph17%29.86 "Hg10 mi
10:30 PM90 °FClear.7 mph17%29.86 "Hg10 mi
10:00 PM90 °FClear.5 mph16%29.86 "Hg10 mi
9:30 PM90 °FSunny.5 mph16%29.86 "Hg10 mi
8:50 PM91 °FSunny.7 mph14%29.83 "Hg10 mi
8:30 PM91 °FPassing clouds.7 mph14%29.83 "HgN/A
7:50 PM91 °FPassing clouds.7 mph14%29.83 "HgN/A
7:20 PM91 °FPassing clouds.7 mph14%29.83 "HgN/A
7:00 PM93 °FPassing clouds.9 mph14%29.83 "HgN/A
6:30 PM93 °FPassing clouds.9 mph14%29.83 "HgN/A
6:00 PM93 °FPassing clouds.7 mph14%29.83 "HgN/A
5:30 PM93 °FPassing clouds.7 mph14%29.83 "HgN/A
5:00 PM93 °FPassing clouds.9 mph14%29.83 "HgN/A
4:30 PM93 °FPassing clouds.9 mph14%29.83 "HgN/A
4:00 PM93 °FPassing clouds.7 mph16%29.86 "HgN/A
3:30 PM91 °FPassing clouds.7 mph17%29.86 "HgN/A
3:00 PM91 °FPassing clouds.9 mph20%29.86 "HgN/A
2:30 PM90 °FPassing clouds.9 mph21%29.89 "HgN/A
2:00 PM90 °FPassing clouds.7 mph21%29.92 "HgN/A
1:00 PM88 °FPassing clouds.9 mph22%29.92 "HgN/A
12:30 PM86 °FPassing clouds.5 mph24%29.95 "HgN/A
12:00 PM86 °FPassing clouds.7 mph25%29.95 "HgN/A
11:30 AM84 °FPassing clouds.7 mph27%29.95 "HgN/A
11:00 AM82 °FPassing clouds.9 mph28%29.95 "HgN/A
10:30 AM84 °FPassing clouds.9 mph27%29.95 "HgN/A
10:00 AM82 °FPassing clouds.7 mph26%29.95 "HgN/A
9:30 AM82 °FPassing clouds.12 mph26%29.95 "HgN/A
9:00 AM82 °FPassing clouds.7 mph28%29.95 "HgN/A
8:30 AM82 °FPassing clouds.No wind28%29.95 "HgN/A
8:00 AM82 °FSunny.No wind30%29.95 "Hg10 mi
7:30 AM81 °FClear.No wind32%29.92 "Hg10 mi
6:30 AM79 °FPassing clouds.No wind34%29.92 "HgN/A
5:30 AM79 °FPassing clouds.5 mph34%29.92 "HgN/A
5:00 AM81 °FPassing clouds.9 mph32%29.89 "HgN/A
4:30 AM81 °FPassing clouds.7 mph32%29.89 "HgN/A
4:00 AM82 °FPassing clouds.5 mph28%29.89 "HgN/A
3:30 AM81 °FPassing clouds.5 mph32%29.89 "HgN/A
3:00 AM81 °FPassing clouds.5 mph34%29.92 "HgN/A
2:30 AM81 °FPassing clouds.7 mph34%29.89 "HgN/A
2:00 AM82 °FPassing clouds.9 mph32%29.89 "HgN/A
1:30 AM84 °FPassing clouds.16 mph29%29.89 "HgN/A
1:00 AM84 °FPassing clouds.12 mph31%29.89 "HgN/A
Weather by CustomWeather, © 2014

See weather overviewHow to use our weather pages